This is the latest recevied weather packets stored in our database for station/object KM4CNW. If no packets are shown the sender has not sent any weather packets the latest 10 day(s).
| Time | Temp. | Humidity | Pressure | Rain* | Wind** | Luminosity | Snow |
|---|---|---|---|---|---|---|---|
| 1777766705 | 12.78° C | 54% | 1007 hPa | 0 mm | - | 1 W/m² | - |
| 1777766401 | 12.78° C | 51% | 1006.8 hPa | 0 mm | - | 2 W/m² | - |
| 1777766098 | 13.33° C | 51% | 1006.7 hPa | 0 mm | - | 3 W/m² | - |
| 1777765795 | 13.33° C | 50% | 1006.8 hPa | 0 mm | - | 3 W/m² | - |
| 1777765492 | 13.33° C | 49% | 1006.7 hPa | 0 mm | - | 6 W/m² | - |
| 1777765189 | 13.89° C | 48% | 1006.9 hPa | 0 mm | - | 11 W/m² | - |
| 1777764885 | 13.89° C | 46% | 1006.7 hPa | 0 mm | - | 12 W/m² | - |
| 1777764582 | 13.89° C | 46% | 1006.6 hPa | 0 mm | - | 19 W/m² | - |
| 1777764278 | 14.44° C | 46% | 1006.4 hPa | 0 mm | - | 23 W/m² | - |
| 1777763975 | 14.44° C | 44% | 1006.5 hPa | 0 mm | - | 24 W/m² | - |
| 1777763672 | 14.44° C | 43% | 1006.5 hPa | 0 mm | - | 24 W/m² | - |
| 1777763371 | 14.44° C | 42% | 1006.3 hPa | 0 mm | - | 43 W/m² | - |
| 1777763068 | 15° C | 41% | 1006.2 hPa | 0 mm | - | 57 W/m² | - |
| 1777762766 | 15° C | 39% | 1006.1 hPa | 0 mm | - | 48 W/m² | - |
| 1777762462 | 15.56° C | 39% | 1006 hPa | 0 mm | - | 42 W/m² | - |
| 1777762159 | 15.56° C | 39% | 1006.1 hPa | 0 mm | - | 47 W/m² | - |
| 1777761855 | 16.11° C | 37% | 1006 hPa | 0 mm | - | 99 W/m² | - |
| 1777761552 | 16.67° C | 34% | 1006.2 hPa | 0 mm | - | 147 W/m² | - |
| 1777761250 | 16.67° C | 35% | 1006.1 hPa | 0 mm | - | 168 W/m² | - |
| 1777760948 | 16.67° C | 33% | 1005.9 hPa | 0 mm | - | 189 W/m² | - |
| 1777760645 | 16.67° C | 33% | 1005.9 hPa | 0 mm | - | 219 W/m² | - |
| 1777760340 | 16.67° C | 36% | 1005.8 hPa | 0 mm | - | 244 W/m² | - |
| 1777760037 | 16.67° C | 35% | 1005.9 hPa | 0 mm | - | 257 W/m² | - |
| 1777759734 | 16.67° C | 34% | 1005.8 hPa | 0 mm | - | 265 W/m² | - |
| 1777759430 | 16.67° C | 34% | 1005.8 hPa | 0 mm | - | 295 W/m² | - |
* Rain latest hour (hover to see other rain measurements)
** Current wind speed in m/s (hover to see current wind gust speed)